TimeEDT,TemperatureF,Dew PointF,Humidity,Sea Level PressureIn,VisibilityMPH,Wind Direction,Wind SpeedMPH,Gust SpeedMPH,PrecipitationIn,Events,Conditions,WindDirDegrees,DateUTC
12:15 AM,69.8,69.8,100,29.87,7.0,Calm,Calm,-,N/A,,Mostly Cloudy,0,2012-10-01 04:15:00
12:35 AM,69.8,69.8,100,29.87,5.0,Calm,Calm,-,N/A,Rain,Light Rain,0,2012-10-01 04:35:00
12:55 AM,69.8,69.8,100,29.87,4.0,Calm,Calm,-,0.01,Rain,Rain,0,2012-10-01 04:55:00
1:15 AM,69.8,69.8,100,29.86,3.0,North,3.5,-,0.03,Rain,Rain,350,2012-10-01 05:15:00
1:55 AM,69.8,69.8,100,29.85,3.0,North,3.5,-,0.11,Rain,Light Rain,360,2012-10-01 05:55:00
2:15 AM,68.0,68.0,100,29.84,2.5,Calm,Calm,-,0.01,Rain,Rain,0,2012-10-01 06:15:00
2:35 AM,68.0,68.0,100,29.84,2.5,Calm,Calm,-,0.03,Rain,Light Rain,0,2012-10-01 06:35:00
2:55 AM,69.8,69.8,100,29.83,3.0,Calm,Calm,-,0.03,Rain,Light Rain,0,2012-10-01 06:55:00
3:15 AM,69.8,69.8,100,29.82,4.0,Calm,Calm,-,N/A,,Light Drizzle,0,2012-10-01 07:15:00
3:35 AM,69.8,69.8,100,29.81,5.0,Calm,Calm,-,N/A,,Clear,0,2012-10-01 07:35:00
3:55 AM,69.8,69.8,100,29.81,3.0,Calm,Calm,-,N/A,,Scattered Clouds,0,2012-10-01 07:55:00
4:15 AM,69.8,69.8,100,29.81,2.5,Calm,Calm,-,N/A,,Scattered Clouds,0,2012-10-01 08:15:00
5:15 AM,68.0,68.0,100,29.82,0.5,Calm,Calm,-,N/A,Fog,Fog,0,2012-10-01 09:15:00
5:35 AM,68.0,68.0,100,29.81,0.2,Calm,Calm,-,N/A,Fog,Fog,0,2012-10-01 09:35:00
5:55 AM,68.0,68.0,100,29.82,0.2,Calm,Calm,-,N/A,Fog,Fog,0,2012-10-01 09:55:00
6:15 AM,68.0,68.0,100,29.82,0.5,Calm,Calm,-,N/A,Fog,Fog,0,2012-10-01 10:15:00
6:35 AM,68.0,68.0,100,29.83,0.5,Calm,Calm,-,N/A,Fog,Fog,0,2012-10-01 10:35:00
7:15 AM,69.8,69.8,100,29.83,0.5,Calm,Calm,-,N/A,Fog,Fog,0,2012-10-01 11:15:00
7:35 AM,69.8,69.8,100,29.83,0.2,Calm,Calm,-,N/A,Fog,Fog,0,2012-10-01 11:35:00
7:55 AM,69.8,69.8,100,29.83,0.8,Calm,Calm,-,N/A,,Overcast,0,2012-10-01 11:55:00
8:15 AM,71.6,71.6,100,29.83,3.0,Calm,Calm,-,N/A,,Mostly Cloudy,0,2012-10-01 12:15:00
8:35 AM,71.6,71.6,100,29.84,4.0,Calm,Calm,-,N/A,,Mostly Cloudy,0,2012-10-01 12:35:00
8:55 AM,73.4,73.4,100,29.85,5.0,Calm,Calm,-,N/A,,Scattered Clouds,0,2012-10-01 12:55:00
9:15 AM,75.2,75.2,100,29.84,10.0,Calm,Calm,-,N/A,,Scattered Clouds,0,2012-10-01 13:15:00
9:35 AM,77.0,77.0,100,29.85,10.0,Calm,Calm,-,N/A,,Scattered Clouds,0,2012-10-01 13:35:00
9:55 AM,77.0,77.0,100,29.85,10.0,Calm,Calm,-,N/A,,Mostly Cloudy,0,2012-10-01 13:55:00
10:15 AM,78.8,78.8,100,29.85,10.0,Calm,Calm,-,N/A,,Mostly Cloudy,0,2012-10-01 14:15:00
10:35 AM,78.8,78.8,100,29.85,10.0,Calm,Calm,-,N/A,,Overcast,0,2012-10-01 14:35:00
11:15 AM,80.6,78.8,94,29.85,10.0,East,4.6,-,N/A,,Scattered Clouds,90,2012-10-01 15:15:00
11:35 AM,80.6,78.8,94,29.84,10.0,ESE,3.5,-,N/A,,Scattered Clouds,110,2012-10-01 15:35:00
11:55 AM,84.2,77.0,79,29.84,10.0,SE,9.2,-,N/A,,Overcast,140,2012-10-01 15:55:00
12:15 PM,82.4,77.0,84,29.85,10.0,SSE,9.2,-,N/A,,Mostly Cloudy,150,2012-10-01 16:15:00
12:35 PM,82.4,77.0,84,29.85,10.0,SSE,8.1,-,N/A,,Mostly Cloudy,160,2012-10-01 16:35:00
1:15 PM,82.4,77.0,84,29.84,10.0,SSE,5.8,-,N/A,,Scattered Clouds,160,2012-10-01 17:15:00
1:35 PM,82.4,75.2,79,29.83,10.0,South,6.9,-,N/A,,Scattered Clouds,170,2012-10-01 17:35:00
2:15 PM,84.2,78.8,84,29.81,10.0,South,8.1,-,N/A,,Scattered Clouds,170,2012-10-01 18:15:00
2:35 PM,82.4,78.8,89,29.81,10.0,SSE,5.8,-,N/A,,Mostly Cloudy,160,2012-10-01 18:35:00
2:55 PM,82.4,77.0,84,29.80,10.0,South,8.1,-,N/A,Thunderstorm,Scattered Clouds,180,2012-10-01 18:55:00
3:15 PM,82.4,77.0,84,29.80,10.0,SSE,6.9,-,N/A,Rain-Thunderstorm,Light Thunderstorms and Rain,160,2012-10-01 19:15:00
3:55 PM,82.4,77.0,84,29.80,10.0,SSE,6.9,-,N/A,Thunderstorm,Mostly Cloudy,160,2012-10-01 19:55:00
4:15 PM,82.4,77.0,84,29.80,10.0,South,8.1,-,N/A,,Mostly Cloudy,180,2012-10-01 20:15:00
4:35 PM,82.4,77.0,84,29.80,10.0,SSE,5.8,-,N/A,,Scattered Clouds,150,2012-10-01 20:35:00
4:55 PM,80.6,78.8,94,29.80,10.0,SSE,5.8,-,0.01,Rain,Rain,150,2012-10-01 20:55:00
5:15 PM,78.8,78.8,100,29.81,7.0,SSE,6.9,-,0.08,Rain,Light Rain,160,2012-10-01 21:15:00
5:35 PM,78.8,78.8,100,29.81,10.0,SE,5.8,-,0.09,,Mostly Cloudy,140,2012-10-01 21:35:00
5:55 PM,78.8,78.8,100,29.81,10.0,ESE,9.2,-,0.09,,Mostly Cloudy,120,2012-10-01 21:55:00
6:15 PM,78.8,78.8,100,29.81,10.0,ESE,5.8,-,N/A,,Mostly Cloudy,120,2012-10-01 22:15:00
6:35 PM,78.8,78.8,100,29.81,10.0,SE,4.6,-,N/A,,Mostly Cloudy,130,2012-10-01 22:35:00
6:55 PM,77.0,77.0,100,29.81,10.0,SE,4.6,-,N/A,,Scattered Clouds,140,2012-10-01 22:55:00
7:15 PM,77.0,77.0,100,29.81,10.0,SE,5.8,-,N/A,,Clear,140,2012-10-01 23:15:00
7:35 PM,77.0,77.0,100,29.81,10.0,SE,4.6,-,N/A,,Clear,140,2012-10-01 23:35:00
7:55 PM,75.2,75.2,100,29.83,10.0,Calm,Calm,-,N/A,,Clear,0,2012-10-01 23:55:00
8:15 PM,75.2,75.2,100,29.83,10.0,Calm,Calm,-,N/A,,Clear,0,2012-10-02 00:15:00
8:35 PM,75.2,75.2,100,29.83,10.0,SE,3.5,-,N/A,,Clear,140,2012-10-02 00:35:00
8:55 PM,75.2,75.2,100,29.82,10.0,SE,3.5,-,N/A,,Clear,140,2012-10-02 00:55:00
9:15 PM,75.2,75.2,100,29.83,10.0,ESE,3.5,-,N/A,,Clear,120,2012-10-02 01:15:00
9:35 PM,75.2,75.2,100,29.83,10.0,SE,3.5,-,N/A,,Clear,130,2012-10-02 01:35:00
9:55 PM,77.0,77.0,100,29.83,10.0,ESE,4.6,-,N/A,,Clear,120,2012-10-02 01:55:00
10:15 PM,77.0,77.0,100,29.83,10.0,SE,3.5,-,N/A,,Clear,140,2012-10-02 02:15:00
10:35 PM,77.0,77.0,100,29.83,10.0,SE,3.5,-,N/A,,Clear,130,2012-10-02 02:35:00
10:55 PM,77.0,77.0,100,29.84,10.0,SE,5.8,-,N/A,,Clear,130,2012-10-02 02:55:00
11:15 PM,77.0,77.0,100,29.84,10.0,SE,6.9,-,N/A,,Clear,140,2012-10-02 03:15:00
11:35 PM,77.0,77.0,100,29.83,10.0,SE,5.8,-,N/A,,Mostly Cloudy,130,2012-10-02 03:35:00
11:55 PM,77.0,77.0,100,29.83,10.0,SE,5.8,-,N/A,,Mostly Cloudy,140,2012-10-02 03:55:00